This demonstration page uses our WeatherBlox Daily Observations layout. Learn more.

Left ArrowRight Arrow

30.00354, -91.81873

Hourly Observations for August 28, 2022

Temp ( °F °C ) Dew Point ( °F °C ) Humidity (%) Winds ( mph kmh ) Pressure ( in mb ) Visibility ( mi km ) Precip ( " mm )
12:53 am 00:53 Clear 77 25 74 23.3 90 90 Calm 29.88 1012 10 16 0.00 0.00
1:53 am 01:53 Clear 76 24.4 73 22.8 91 91 Calm 29.88 1012 10 16 0.00 0.00
2:53 am 02:53 Clear 76 24.4 73 22.8 91 91 E 3 6 29.89 1012 10 16 0.00 0.00
3:53 am 03:53 Clear 75 23.9 73 22.8 94 94 Calm 29.89 1012 10 16 0.00 0.00
4:53 am 04:53 Mostly Clear 75 23.9 73 22.8 94 94 SE 5 7 29.88 1012 10 16 0.00 0.00
5:53 am 05:53 Clear 75 23.9 73 22.8 94 94 Calm 29.90 1012 9 14 0.00 0.00
6:53 am 06:53 Sunny 75 23.9 73 22.8 94 94 Calm 29.91 1013 9 14 0.00 0.00
7:53 am 07:53 Sunny 78 25.6 75 23.9 90 90 E 5 7 29.92 1013 10 16 0.00 0.00
8:53 am 08:53 Sunny 83 28.3 77 25 82 82 ESE 5 7 29.93 1014 10 16 0.00 0.00
9:53 am 09:53 Partly Cloudy 85 29.4 76 24.4 75 75 SE 8 13 29.93 1014 10 16 0.00 0.00
10:09 am 10:09 Mostly Cloudy 86 30 76 24.4 72 72 SE 8 13 29.94 1014 10 16 0.00 0.00
10:24 am 10:24 Mostly Cloudy 87 30.6 76 24.4 70 70 SE 8 13 29.94 1014 10 16 0.00 0.00
10:53 am 10:53 Mostly Sunny 88 31.1 75 23.9 66 66 E 7 11 29.93 1014 10 16 0.00 0.00
11:53 am 11:53 Cloudy with Light Rain 83 28.3 76 24.4 79 79 SW 7 11 29.93 1014 10 16 0.01 0.13
12:53 pm 12:53 Mostly Cloudy with Nearby Thunderstorms 84 28.9 76 24.4 77 77 ESE 16 26 29.93 1013 4 6 0.02 0.51
12:58 pm 12:58 Cloudy with Nearby Thunderstorms 81 27.2 76 24.4 85 85 E 17 28 29.92 1013 2 3 0.06 1.52
1:05 pm 13:05 Cloudy with Nearby Thunderstorms 80 26.7 75 23.9 85 85 E 9 15 29.92 1013 4 6 0.07 1.78
1:13 pm 13:13 Cloudy with Light Rain 80 26.7 75 23.9 85 85 NE 8 13 29.92 1013 10 16 0.07 1.78
1:22 pm 13:22 Mostly Cloudy with Thunderstorms 82 27.8 76 24.4 82 82 ENE 9 15 29.92 1013 10 16 0.07 1.78
1:48 pm 13:48 Mostly Cloudy with Nearby Thunderstorms 81 27 75 24 84 84 ENE 8 13 29.93 1013 10 16 0.07 1.78
1:53 pm 13:53 Mostly Cloudy with Nearby Thunderstorms 81 27.2 75 23.9 82 82 NE 8 13 29.92 1013 10 16 0.08 2.03
2:05 pm 14:05 Mostly Cloudy 83 28.3 77 25 82 82 E 5 7 29.92 1013 10 16 0.01 0.13
2:53 pm 14:53 Partly Cloudy 88 31.1 77 25 70 70 VRB 3 6 29.90 1013 10 16 0.01 0.13
3:53 pm 15:53 Partly Cloudy 89 31.7 73 22.8 59 59 SSW 12 19 29.90 1013 10 16 0.00 0.00
4:05 pm 16:05 Partly Cloudy with Nearby Thunderstorms 89 31.7 74 23.3 61 61 SSW 10 17 29.90 1012 10 16 0.00 0.00
4:20 pm 16:20 Sunny 89 31.7 74 23.3 61 61 S 10 17 29.89 1012 10 16 0.00 0.00
4:53 pm 16:53 Sunny 89 31.7 75 23.9 63 63 S 14 22 29.88 1012 10 16 0.00 0.00
5:53 pm 17:53 Mostly Cloudy 88 31.1 74 23.3 63 63 SSE 15 24 29.89 1012 10 16 0.00 0.00
6:53 pm 18:53 Mostly Sunny 80 26.7 73 22.8 79 79 S 7 11 29.90 1012 10 16 0.00 0.00
7:53 pm 19:53 Clear 79 26.1 74 23.3 85 85 Calm 29.90 1013 10 16 0.00 0.00
8:53 pm 20:53 Clear 78 25.6 73 22.8 85 85 E 3 6 29.91 1013 10 16 0.00 0.00
9:53 pm 21:53 Clear 77 25 73 22.8 88 88 E 5 7 29.91 1013 10 16 0.00 0.00
10:53 pm 22:53 Clear 77 25 73 22.8 88 88 ESE 3 6 29.90 1013 10 16 0.00 0.00
11:53 pm 23:53 Clear 77 25 73 22.8 88 88 E 8 13 29.89 1012 10 16 0.00 0.00

Powered by AerisWeather